This is the latest recevied weather packets stored in our database for station/object WB4ROX. If no packets are shown the sender has not sent any weather packets the latest 1 day(s).
| Time | Temp. | Humidity | Pressure | Rain* | Wind** | Luminosity | Snow |
|---|---|---|---|---|---|---|---|
| 1778044732 | 11.67° C | 68% | 1016.7 hPa | 0 mm | 0.89 m/s, 265° | 0 W/m² | - |
| 1778044428 | 11.67° C | 68% | 1016.8 hPa | 0 mm | 2.24 m/s, 270° | 0 W/m² | - |
| 1778044125 | 11.67° C | 68% | 1016.7 hPa | 0 mm | 1.79 m/s, 95° | 0 W/m² | - |
| 1778043823 | 11.67° C | 68% | 1016.8 hPa | 0 mm | 1.79 m/s, 34° | 0 W/m² | - |
| 1778043520 | 11.67° C | 68% | 1016.7 hPa | 0 mm | 3.13 m/s, 285° | 0 W/m² | - |
| 1778043216 | 11.67° C | 68% | 1016.9 hPa | 0 mm | 0.89 m/s, 241° | 0 W/m² | - |
| 1778042913 | 11.67° C | 68% | 1016.6 hPa | 0 mm | 2.68 m/s, 337° | 0 W/m² | - |
| 1778042611 | 11.67° C | 68% | 1016.8 hPa | 0 mm | 2.24 m/s, 96° | 0 W/m² | - |
| 1778042308 | 11.67° C | 68% | 1016.9 hPa | 0 mm | 0.89 m/s, 121° | 0 W/m² | - |
| 1778042005 | 11.67° C | 67% | 1016.9 hPa | 0 mm | 1.79 m/s, 317° | 0 W/m² | - |
| 1778041703 | 11.67° C | 67% | 1016.9 hPa | 0 mm | 0.89 m/s, 86° | 0 W/m² | - |
| 1778041402 | 11.67° C | 67% | 1016.9 hPa | 0 mm | 1.79 m/s, 227° | 0 W/m² | - |
| 1778041100 | 11.67° C | 67% | 1016.7 hPa | 0 mm | 0.45 m/s, 97° | 0 W/m² | - |
| 1778040797 | 11.67° C | 67% | 1016.7 hPa | 0 mm | 2.24 m/s, 327° | 0 W/m² | - |
| 1778040494 | 11.67° C | 66% | 1016.8 hPa | 0 mm | 2.68 m/s, 267° | 0 W/m² | - |
| 1778040192 | 11.67° C | 66% | 1016.9 hPa | 0 mm | 1.79 m/s, 111° | 0 W/m² | - |
| 1778039888 | 11.67° C | 66% | 1017 hPa | 0 mm | 3.58 m/s, 241° | 0 W/m² | - |
| 1778039585 | 11.67° C | 65% | 1017.1 hPa | 0 mm | 0.89 m/s, 272° | 0 W/m² | - |
| 1778039282 | 11.67° C | 65% | 1016.8 hPa | 0 mm | 0.89 m/s, 278° | 0 W/m² | - |
| 1778038979 | 11.67° C | 65% | 1017 hPa | 0 mm | 1.79 m/s, 128° | 0 W/m² | - |
| 1778038676 | 11.67° C | 65% | 1016.9 hPa | 0 mm | 1.34 m/s, 276° | 0 W/m² | - |
| 1778038373 | 11.67° C | 65% | 1016.8 hPa | 0 mm | 1.34 m/s, 81° | 0 W/m² | - |
| 1778038070 | 11.67° C | 65% | 1016.9 hPa | 0 mm | 1.34 m/s, 280° | 0 W/m² | - |
| 1778037767 | 12.22° C | 64% | 1017 hPa | 0 mm | 0.45 m/s, 104° | 0 W/m² | - |
| 1778037464 | 11.67° C | 64% | 1017.3 hPa | 0 mm | 1.79 m/s, 118° | 0 W/m² | - |
* Rain latest hour (hover to see other rain measurements)
** Current wind speed in m/s (hover to see current wind gust speed)